COSMOS 2569 (703K)

Last updated on Tue Dec 03 2024 00:02:30 GMT+0000 (Coordinated Universal Time)

1 57517U 23114A 24337.08394373 .00000007 00000+0 00000+0 0 9997 2 57517 64.9963 91.6241 0009702 289.2470 70.6348 2.13104089 10284
UTC large
Height (km)
Speed (km/s)
/
Latitude / Longitude
Inclination (degrees)
Orbital Period (minutes)
Azimuth
Elevation
Range (km)
Doppler Factor

Next 0 passes for location: London (51.5072 / 0.1276)

Sorry there are no passes over London.